[TLELIST] Archives

 

Current TLEs

March 4th 2008 PDT

HST 1 20580U 90037B 08062.84597179 .00000368 00000-0 15662-4 0 846 2 20580 028.4691 296.7949 0003401 332.8863 027.1548 15.00343468778995 ISS (ZARYA) 1 25544U 98067A 08063.38218727 .00022481 00000-0 14617-3 0 377 2 25544 051.6373 201.7628 0002237 190.1262 279.1703 15.75863998531838 CXO 1 25867U 99040B 08059.12500000 .00000125 00000-0 10000-3 0 1736 2 25867 063.2186 083.3154 6641497 280.2288 354.1024 00.37805772 3211 ____________________________________________________________________ These 2-Line ...Continue Reading

Current TLEs

March 3rd 2008 PDT

HST 1 20580U 90037B 08060.91687157 +.00000331 +00000-0 +12808-4 0 01017 2 20580 028.4691 309.3748 0003480 312.6300 047.3993 15.00342411778706 ISS (ZARYA) 1 25544U 98067A 08062.29860708 .00025858 00000-0 16778-3 0 302 2 25544 051.6376 207.3415 0002540 180.9092 257.0662 15.75816841531667 CXO 1 25867U 99040B 08059.12500000 .00000125 00000-0 10000-3 0 1736 2 25867 063.2186 083.3154 6641497 280.2288 354.1024 00.37805772 3211 ____________________________________________________________________ These 2-Line ...Continue Reading

Current TLEs

March 2nd 2008 PDT

HST 1 20580U 90037B 08061.11643372 .00000351 00000-0 14365-4 0 832 2 20580 028.4691 308.0728 0003438 315.5735 044.4580 15.00342643778737 ISS (ZARYA) 1 25544U 98067A 08061.40368593 .00024713 00000-0 16090-3 0 248 2 25544 051.6382 211.9487 0002641 173.2336 224.5544 15.75767833531521 CXO 1 25867U 99040B 08059.12500000 .00000125 00000-0 10000-3 0 1736 2 25867 063.2186 083.3154 6641497 280.2288 354.1024 00.37805772 3211 ____________________________________________________________________ These 2-Line ...Continue Reading

Current TLEs

March 1st 2008 PDT

HST 1 20580U 90037B 08059.85253987 .00000333 00000-0 12922-4 0 825 2 20580 028.4690 316.3167 0003530 300.4556 059.5683 15.00342024778545 ISS (ZARYA) 1 25544U 98067A 08060.45455880 .00017015 00000-0 11243-3 0 172 2 25544 051.6397 216.8383 0002190 178.7285 231.3277 15.75715172531379 CXO 1 25867U 99040B 08059.12500000 .00000125 00000-0 10000-3 0 1736 2 25867 063.2186 083.3154 6641497 280.2288 354.1024 00.37805772 3211 ____________________________________________________________________ These 2-Line ...Continue Reading

Current TLEs

February 29th 2008 PDT

HST 1 20580U 90037B 08058.18952117 .00000356 00000-0 14738-4 0 812 2 20580 028.4688 327.1604 0003561 282.2673 077.7518 15.00341572778297 ISS (ZARYA) 1 25544U 98067A 08059.24020833 .00010632 00000-0 66346-4 0 97 2 25544 051.6380 223.0842 0007793 085.9488 271.1938 15.77533424531173 CXO 1 25867U 99040B 08059.12500000 .00000125 00000-0 10000-3 0 1736 2 25867 063.2186 083.3154 6641497 280.2288 354.1024 00.37805772 3211 ____________________________________________________________________ These 2-Line ...Continue Reading

Current TLEs

February 28th 2008 PDT

HST 1 20580U 90037B 08058.18952117 .00000356 00000-0 14738-4 0 812 2 20580 028.4688 327.1604 0003561 282.2673 077.7518 15.00341572778297 ISS (ZARYA) 1 25544U 98067A 08058.36658672 .00010387 00000-0 64970-4 0 39 2 25544 051.6383 227.5940 0007784 083.4598 348.9527 15.77512657531047 CXO 1 25867U 99040B 08059.12500000 .00000125 00000-0 10000-3 0 1736 2 25867 063.2186 083.3154 6641497 280.2288 354.1024 00.37805772 3211 ____________________________________________________________________ These 2-Line ...Continue Reading

Current TLEs

February 27th 2008 PDT

HST 1 20580U 90037B 08056.85910613 .00000344 00000-0 13754-4 0 802 2 20580 028.4688 335.8392 0003795 266.5035 093.5118 15.00340987778092 ISS (ZARYA) 1 25544U 98067A 08057.27545139 .00010280 00000-0 64411-4 0 9942 2 25544 051.6377 233.2265 0007732 080.1228 271.5370 15.77488018530860 CXO 1 25867U 99040B 08056.50000000 .00000106 00000-0 10000-3 0 1728 2 25867 063.2052 083.3594 6635665 280.2808 356.6992 00.37805726 3208 ____________________________________________________________________ These 2-Line ...Continue Reading

Current TLEs

February 26th 2008 PDT

HST 1 20580U 90037B 08055.19608768 .00000337 00000-0 13259-4 0 793 2 20580 028.4689 346.6832 0003880 248.3999 111.6178 15.00340377777847 ISS (ZARYA) 1 25544U 98067A 08056.40501551 .00010543 00000-0 66009-4 0 9886 2 25544 051.6380 237.7192 0007787 077.3293 007.8522 15.77470126530738 CXO 1 25867U 99040B 08056.50000000 .00000106 00000-0 10000-3 0 1728 2 25867 063.2052 083.3594 6635665 280.2808 356.6992 00.37805726 3208 ____________________________________________________________________ These 2-Line ...Continue Reading

Current TLEs

February 25th 2008 PDT

HST 1 20580U 90037B 08055.19608768 .00000337 00000-0 13259-4 0 793 2 20580 028.4689 346.6832 0003880 248.3999 111.6178 15.00340377777847 ISS (ZARYA) 1 25544U 98067A 08055.38843678 .00010778 00000-0 67456-4 0 9822 2 25544 051.6382 242.9658 0007755 074.0556 354.2242 15.77448284530576 CXO 1 25867U 99040B 08053.83333333 .00000109 00000-0 10000-3 0 1711 2 25867 063.1898 083.4141 6631157 280.3311 353.5958 00.37806144 3197 ____________________________________________________________________ These 2-Line ...Continue Reading

Current TLEs

February 24th 2008 PDT

HST 1 20580U 90037B 08053.86567285 .00000321 00000-0 11980-4 0 784 2 20580 028.4687 355.3600 0004062 234.8503 125.1708 15.00339828777645 ISS (ZARYA) 1 25544U 98067A 08054.29648148 .00011757 00000-0 73277-4 0 9754 2 25544 051.6410 248.6003 0007908 071.3544 271.7776 15.77426884530399 CXO 1 25867U 99040B 08053.83333333 .00000109 00000-0 10000-3 0 1711 2 25867 063.1898 083.4141 6631157 280.3311 353.5958 00.37806144 3197 ____________________________________________________________________ These 2-Line ...Continue Reading
  • This mailing list is a public mailing list - anyone may join or leave, at any time.
  • This mailing list is announce-only.

International Space Station (ISS) / Hubble Space Telescope (HST) / Chandra X-Ray Observatory Orbital Data via EMAIL

Privacy Policy:

Private list